CSN671 ZGGG-VHHX

Flight info

Callsign CSN671
Flight time 0h 27m
Altitude 16700
Route SAREX9 SAREX W6 NLG W18 TAMOT
Aircraft B38M/M-SDE1FGHILORVWXY/HB1

Departure

Time 2026-05-06 22:22
Airport Guangzhou Baiyun International Airport (ZGGG)

Arrival

Time 2026-05-06 22:49
Airport Hong Kong International Airport Kai Tak (VHHX)
Time Latitude Longitude Altitude Speed Heading
2026-05-06 21:52 23.38516 113.30058 50 ft 0 kts 141°
2026-05-06 22:13 23.38515 113.30059 55 ft 0 kts 139°
2026-05-06 22:13 23.38515 113.30061 55 ft 1 kts 125°
2026-05-06 22:13 23.38516 113.30072 52 ft 4 kts 86°
2026-05-06 22:14 23.38525 113.30126 53 ft 10 kts 83°
2026-05-06 22:14 23.38519 113.30193 53 ft 7 kts 127°
2026-05-06 22:14 23.38484 113.30228 55 ft 7 kts 141°
2026-05-06 22:14 23.38441 113.30258 55 ft 7 kts 161°
2026-05-06 22:15 23.38387 113.30271 55 ft 9 kts 167°
2026-05-06 22:15 23.38331 113.30300 55 ft 9 kts 138°
2026-05-06 22:15 23.38272 113.30327 53 ft 9 kts 173°
2026-05-06 22:15 23.38214 113.30311 50 ft 9 kts 201°
2026-05-06 22:16 23.38149 113.30290 51 ft 11 kts 194°
2026-05-06 22:16 23.38071 113.30270 49 ft 13 kts 193°
2026-05-06 22:16 23.37976 113.30244 53 ft 16 kts 196°
2026-05-06 22:16 23.37865 113.30214 52 ft 17 kts 193°
2026-05-06 22:17 23.37751 113.30202 53 ft 16 kts 166°
2026-05-06 22:17 23.37652 113.30255 54 ft 15 kts 135°
2026-05-06 22:17 23.37615 113.30345 51 ft 12 kts 102°
2026-05-06 22:17 23.37601 113.30429 52 ft 11 kts 100°
2026-05-06 22:18 23.37585 113.30506 51 ft 10 kts 104°
2026-05-06 22:18 23.37566 113.30584 51 ft 11 kts 105°
2026-05-06 22:18 23.37543 113.30671 55 ft 13 kts 105°
2026-05-06 22:18 23.37487 113.30720 53 ft 9 kts 164°
2026-05-06 22:19 23.37441 113.30705 51 ft 7 kts 199°
2026-05-06 22:19 23.37325 113.30674 51 ft 26 kts 192°
2026-05-06 22:19 23.37136 113.30620 54 ft 27 kts 194°
2026-05-06 22:19 23.36998 113.30610 54 ft 14 kts 144°
2026-05-06 22:20 23.36980 113.30698 55 ft 12 kts 99°
2026-05-06 22:20 23.36983 113.30780 51 ft 11 kts 64°
2026-05-06 22:20 23.37029 113.30801 53 ft 7 kts
2026-05-06 22:20 23.37085 113.30813 53 ft 16 kts 12°
2026-05-06 22:21 23.37369 113.30889 51 ft 68 kts 14°
2026-05-06 22:21 23.37969 113.31049 52 ft 112 kts 14°
2026-05-06 22:21 23.38916 113.31306 49 ft 166 kts 14°
2026-05-06 22:21 23.40152 113.31629 330 ft 191 kts 14°
2026-05-06 22:22 23.41497 113.31984 906 ft 206 kts 14°
2026-05-06 22:22 23.42965 113.32376 1367 ft 239 kts 15°
2026-05-06 22:22 23.44716 113.32880 1860 ft 267 kts 16°
2026-05-06 22:22 23.46493 113.33364 2431 ft 261 kts 14°
2026-05-06 22:23 23.48248 113.33822 3011 ft 263 kts 14°
2026-05-06 22:23 23.50066 113.34311 3617 ft 272 kts 14°
2026-05-06 22:23 23.51872 113.34803 4215 ft 270 kts 14°
2026-05-06 22:23 23.53731 113.35306 4831 ft 281 kts 13°
2026-05-06 22:24 23.55669 113.35814 5444 ft 291 kts
2026-05-06 22:24 23.57657 113.35572 6110 ft 292 kts 333°
2026-05-06 22:24 23.59281 113.34276 6742 ft 292 kts 308°
2026-05-06 22:24 23.60238 113.32349 7374 ft 291 kts 282°
2026-05-06 22:25 23.60369 113.30146 8243 ft 294 kts 265°
2026-05-06 22:25 23.60141 113.27909 8634 ft 300 kts 262°
2026-05-06 22:25 23.59885 113.25644 9286 ft 302 kts 263°
2026-05-06 22:25 23.59682 113.23350 9922 ft 307 kts 264°
2026-05-06 22:26 23.59490 113.21006 10505 ft 313 kts 263°
2026-05-06 22:26 23.59281 113.18632 11095 ft 316 kts 263°
2026-05-06 22:26 23.59058 113.16232 11691 ft 320 kts 263°
2026-05-06 22:26 23.58803 113.13808 12300 ft 323 kts 257°
2026-05-06 22:27 23.57994 113.11530 12934 ft 326 kts 239°
2026-05-06 22:27 23.56525 113.09645 13598 ft 330 kts 220°
2026-05-06 22:27 23.54539 113.08383 14199 ft 335 kts 201°
2026-05-06 22:27 23.52243 113.07915 14793 ft 340 kts 184°
2026-05-06 22:28 23.49873 113.07893 15368 ft 342 kts 182°
2026-05-06 22:28 23.47477 113.07936 15861 ft 348 kts 182°
2026-05-06 22:28 23.45000 113.07967 15953 ft 366 kts 182°
2026-05-06 22:28 23.42416 113.07972 15965 ft 372 kts 182°
2026-05-06 22:29 23.39839 113.07980 15965 ft 371 kts 182°
2026-05-06 22:29 23.37243 113.07997 15964 ft 373 kts 182°
2026-05-06 22:29 23.34656 113.08016 15961 ft 372 kts 182°
2026-05-06 22:29 23.32066 113.08030 15963 ft 372 kts 182°
2026-05-06 22:30 23.29477 113.08042 15963 ft 372 kts 182°
2026-05-06 22:30 23.26886 113.08123 15960 ft 374 kts 175°
2026-05-06 22:30 23.24364 113.08881 15970 ft 379 kts 161°
2026-05-06 22:30 23.21919 113.09980 15956 ft 381 kts 159°
2026-05-06 22:31 23.19487 113.11121 15945 ft 381 kts 159°
2026-05-06 22:31 23.17050 113.12245 15947 ft 381 kts 160°
2026-05-06 22:31 23.14586 113.13352 15949 ft 391 kts 160°
2026-05-06 22:31 23.12014 113.14510 15955 ft 409 kts 160°
2026-05-06 22:32 23.09340 113.15732 15949 ft 425 kts 159°
2026-05-06 22:32 23.06602 113.16989 15946 ft 426 kts 159°
2026-05-06 22:32 23.04006 113.18560 15949 ft 432 kts 146°
2026-05-06 22:32 23.01771 113.20760 15946 ft 435 kts 133°
2026-05-06 22:33 23.00042 113.23455 15946 ft 438 kts 120°
2026-05-06 22:33 22.98626 113.26384 15952 ft 439 kts 118°
2026-05-06 22:33 22.97240 113.29341 15946 ft 439 kts 118°
2026-05-06 22:33 22.95850 113.32285 15946 ft 439 kts 119°
2026-05-06 22:34 22.94438 113.35222 15947 ft 439 kts 119°
2026-05-06 22:34 22.93045 113.38117 15946 ft 438 kts 119°
2026-05-06 22:34 22.91646 113.41053 15947 ft 438 kts 119°
2026-05-06 22:34 22.90143 113.43922 15929 ft 436 kts 127°
2026-05-06 22:35 22.88130 113.46359 15925 ft 433 kts 141°
2026-05-06 22:35 22.85694 113.48230 15929 ft 429 kts 153°
2026-05-06 22:35 22.82955 113.49464 15929 ft 425 kts 166°
2026-05-06 22:35 22.80080 113.50166 15941 ft 423 kts 171°
2026-05-06 22:36 22.78134 113.50594 15946 ft 423 kts 171°
2026-05-06 22:36 22.74309 113.51430 15954 ft 423 kts 171°
2026-05-06 22:36 22.71424 113.52081 15957 ft 423 kts 171°
2026-05-06 22:36 22.69512 113.52516 15920 ft 424 kts 171°
2026-05-06 22:37 22.66623 113.53165 15713 ft 422 kts 171°
2026-05-06 22:37 22.63764 113.53800 15496 ft 419 kts 171°
2026-05-06 22:37 22.60901 113.54437 15285 ft 419 kts 171°
2026-05-06 22:37 22.58051 113.55076 15075 ft 418 kts 171°
2026-05-06 22:38 22.55210 113.55743 14669 ft 417 kts 166°
2026-05-06 22:38 22.52643 113.57155 14195 ft 417 kts 144°
2026-05-06 22:38 22.50737 113.59508 13703 ft 418 kts 124°
2026-05-06 22:38 22.49296 113.62227 13168 ft 414 kts 119°
2026-05-06 22:39 22.48038 113.64992 12609 ft 407 kts 118°
2026-05-06 22:39 22.46755 113.67689 12023 ft 401 kts 121°
2026-05-06 22:39 22.45286 113.70222 11443 ft 395 kts 126°
2026-05-06 22:39 22.43809 113.72596 10820 ft 362 kts 125°
2026-05-06 22:40 22.42532 113.74824 10220 ft 338 kts 123°
2026-05-06 22:40 22.41377 113.76942 9592 ft 316 kts 123°
2026-05-06 22:40 22.40268 113.78912 8987 ft 298 kts 124°
2026-05-06 22:40 22.39198 113.80765 8401 ft 284 kts 124°
2026-05-06 22:41 22.37216 113.84237 7361 ft 261 kts 124°
2026-05-06 22:41 22.36284 113.85877 6905 ft 251 kts 124°
2026-05-06 22:41 22.35325 113.87403 6456 ft 240 kts 129°
2026-05-06 22:42 22.34388 113.88875 6014 ft 241 kts 124°
2026-05-06 22:42 22.33476 113.90366 5664 ft 230 kts 126°
2026-05-06 22:42 22.32599 113.91743 5268 ft 216 kts 127°
2026-05-06 22:42 22.31829 113.93064 4869 ft 206 kts 112°
2026-05-06 22:43 22.31695 113.94543 4446 ft 194 kts 89°
2026-05-06 22:43 22.31795 113.95953 4036 ft 181 kts 88°
2026-05-06 22:43 22.31894 113.97274 3769 ft 171 kts 88°
2026-05-06 22:43 22.31980 113.98547 3546 ft 174 kts 89°
2026-05-06 22:44 22.32065 113.99864 3342 ft 177 kts 89°
2026-05-06 22:44 22.32150 114.01179 3111 ft 170 kts 88°
2026-05-06 22:44 22.32237 114.02438 2907 ft 170 kts 90°
2026-05-06 22:44 22.32319 114.03732 2696 ft 175 kts 89°
2026-05-06 22:45 22.32405 114.05028 2479 ft 171 kts 89°
2026-05-06 22:45 22.32490 114.06297 2259 ft 168 kts 89°
2026-05-06 22:45 22.32570 114.07534 2030 ft 161 kts 88°
2026-05-06 22:45 22.32648 114.08712 1843 ft 152 kts 87°
2026-05-06 22:46 22.32722 114.09819 1841 ft 145 kts 88°
2026-05-06 22:46 22.32795 114.10909 1711 ft 147 kts 88°
2026-05-06 22:46 22.32855 114.12039 1512 ft 153 kts 88°
2026-05-06 22:46 22.32932 114.13138 1581 ft 145 kts 87°
2026-05-06 22:47 22.32996 114.14264 1259 ft 156 kts 88°
2026-05-06 22:47 22.33079 114.15430 932 ft 152 kts 85°
2026-05-06 22:47 22.33205 114.16537 675 ft 144 kts 84°
2026-05-06 22:47 22.33243 114.17599 482 ft 141 kts 95°
2026-05-06 22:48 22.33042 114.18636 326 ft 142 kts 118°
2026-05-06 22:48 22.32352 114.19431 118 ft 146 kts 127°
2026-05-06 22:48 22.31685 114.20207 36 ft 127 kts 132°
2026-05-06 22:48 22.31182 114.20766 33 ft 88 kts 135°
2026-05-06 22:49 22.30859 114.21125 34 ft 39 kts 134°
2026-05-06 22:49 22.30779 114.21213 33 ft 2 kts 115°
2026-05-06 22:49 22.30781 114.21218 33 ft 1 kts 77°
2026-05-06 22:49 22.30792 114.21227 35 ft 5 kts 38°
2026-05-06 22:50 22.30844 114.21264 35 ft 10 kts 21°
2026-05-06 22:50 22.30896 114.21250 35 ft 8 kts 310°
2026-05-06 22:50 22.30932 114.21196 33 ft 9 kts 307°
2026-05-06 22:50 22.30976 114.21143 35 ft 10 kts 313°
2026-05-06 22:51 22.31029 114.21089 35 ft 11 kts 315°
2026-05-06 22:51 22.31078 114.21031 34 ft 10 kts 311°
2026-05-06 22:51 22.31133 114.20969 33 ft 16 kts 316°
2026-05-06 22:51 22.31260 114.20830 35 ft 35 kts 306°
2026-05-06 22:52 22.31447 114.20622 35 ft 34 kts 328°
2026-05-06 22:52 22.31569 114.20552 27 ft 0 kts 347°
2026-05-06 22:53 22.31568 114.20551 17 ft 0 kts 345°
2026-05-06 22:53 22.31569 114.20551 19 ft 0 kts 345°
2026-05-06 22:54 22.32101 113.92524 5064 ft 210 kts 124°
2026-05-06 22:54 22.31881 113.97084 3801 ft 171 kts 88°
2026-05-06 22:54 22.32778 114.10641 1754 ft 146 kts 88°
2026-05-06 22:54 22.32834 114.11644 1578 ft 152 kts 89°
2026-05-06 22:55 22.33093 114.15568 898 ft 151 kts 84°
2026-05-06 22:55 22.33222 114.16700 635 ft 143 kts 86°
2026-05-06 22:55 22.33228 114.17788 451 ft 142 kts 97°
2026-05-06 22:55 22.32925 114.18828 290 ft 144 kts 131°
2026-05-06 22:56 22.32257 114.19553 93 ft 146 kts 127°
2026-05-06 22:56 22.31604 114.20302 36 ft 120 kts 133°
2026-05-06 22:56 22.32663 114.19101 180 ft 147 kts 138°
2026-05-06 22:56 22.31974 114.19893 52 ft 143 kts 131°
2026-05-06 22:57 22.32172 114.19661 67 ft 146 kts 129°
2026-05-06 22:57 22.32049 114.19807 57 ft 145 kts 132°
2026-05-06 22:57 22.32703 114.19063 197 ft 147 kts 139°
2026-05-06 22:57 22.32023 114.19838 58 ft 145 kts 132°
2026-05-06 22:58 22.31426 114.20500 35 ft 102 kts 134°
2026-05-06 22:58 22.31390 114.20540 34 ft 100 kts 134°